TECHNOSAT

Last updated on Sun Jun 21 2026 00:03:42 GMT+0000 (Coordinated Universal Time)

1 42829U 17042E 26171.44071003 .00002691 00000+0 19322-3 0 9992 2 42829 97.4297 328.9745 0019198 84.0647 276.2768 15.04979783487190
UTC large
Height (km)
Speed (km/s)
/
Latitude / Longitude
Inclination (degrees)
Orbital Period (minutes)
Azimuth
Elevation
Range (km)
Doppler Factor

Next 0 passes for location: London (51.5072 / 0.1276)

No passes found over London.
TECHNOSAT